Weather Roundup
Issued by NWS

Home | Current Version | Previous Version | Text Only | Print | Product List | Glossary On
Versions: 1 2 3 4 5 6 7 8 9 10 11 12 13 14 15 16 17 18 19 20 21 22 23 24 25 26 27 28 29 30 31 32 33 34 35 36 37 38 39 40 41 42 43 44 45 46 47 48 49 50
000
NZUS93 KARX 170110
HRRWXR

CURRENT HOURLY OBSERVATIONS ACROSS
MUCH OF THE UPPER MISSISSIPPI VALLEY
NATIONAL WEATHER SERVICE LA CROSSE WI
700 PM CST MON JAN 16 2017


...SOUTHEAST MINNESOTA...


CITY           SKY/WX    TMP DP  RH WIND       PRES   REMARKS
ROCHESTER      FRZ RAIN  31  31 100 E13       29.95F FOG     WCI  21
ROCHESTER/MAYO CLOUDY    32  32 100 CALM      29.97F
WINONA         MIX PCPN  34  32  93 CALM      30.01S
AUSTIN         MIX PCPN  32  30  93 E6        29.94S WCI  26
ALBERT LEA     LGT SNOW  34  32  93 NE8       29.95S WCI  27
DODGE CENTER   MIX PCPN  30  30 100 CALM      29.95F
PRESTON        CLOUDY    31  29  94 NE5       29.95F FOG     WCI  26
OWATONNA       LGT RAIN  32  30  93 NE5       29.97S WCI  27
FARIBAULT      MIX PCPN  30  28  93 N7        29.99S WCI  23
$$

...ELSEWHERE IN MINNESOTA...


CITY           SKY/WX    TMP DP  RH WIND       PRES   REMARKS
MINNEAPOLIS    FRZ RAIN  31  25  78 NE7       30.02F WCI  24
INTNL FALLS    CLOUDY    12   7  80 CALM      30.03S
DULUTH         CLOUDY    23  16  74 CALM      30.03S
RED WING       MIX PCPN  30  28  93 E5        30.00F WCI  25
REDWOOD FALLS  CLOUDY    31  29  92 N5        30.01S FOG     WCI  26
MANKATO        LGT SNOW  31  29  92 NE9       29.98F FOG     WCI  23
WORTHINGTON    MIX PCPN  30  29  96 N12       29.96F FOG     WCI  20
FAIRMONT       MIX PCPN  31  30  96 N8        29.97S FOG     WCI  23
$$

...SOUTHWEST WISCONSIN...


CITY           SKY/WX    TMP DP  RH WIND       PRES   REMARKS
LA CROSSE      LGT RAIN  38  32  79 E7        29.99F WCI  33
PRAIRIE DU CHI MIX PCPN  33  32  96 CALM      29.96F
BOSCOBEL       LGT RAIN  34  32  92 NE6       29.97F FOG     WCI  29
LONE ROCK      LGT RAIN  34  32  92 E7        29.99F FOG     WCI  28
PLATTEVILLE    CLOUDY    34  34 100 E13       29.94F WCI  25
FORT MC COY    MIX PCPN  32  32  99 E8        30.00F WCI  25
CAMP DOUGLAS   LGT RAIN  33  31  95 E6        30.00F WCI  27
MAUSTON-NEW LI LGT RAIN  33  32  98 E7        30.00F WCI  26
VIROQUA        CLOUDY    32  32 100 E6        29.95F WCI  27
WIS DELLS      CLOUDY    32  32  99 E8        29.99F FOG     WCI  25
$$

...ELSEWHERE IN WISCONSIN...


CITY           SKY/WX    TMP DP  RH WIND       PRES   REMARKS
MILWAUKEE      LGT RAIN  36  34  92 E14       30.04F FOG     WCI  27
MADISON        RAIN      33  32  96 E10       29.98F FOG     WCI  25
GREEN BAY      FRZ RAIN  33  30  88 NE6       30.10F FOG     WCI  28
EAU CLAIRE     FRZ RAIN  29  25  85 NE7       30.02F FOG     WCI  22
BLACK RVR FLS  RAIN      33  33 100 E6        30.00F WCI  27
MEDFORD        MIX PCPN  30  23  74 E6        30.03S WCI  24
WAUSAU         FRZ RAIN  30  22  72 E5        30.05S WCI  25
WIS RAPIDS     MIX PCPN  31  30  96 E7        30.04F FOG     WCI  24
MARSHFIELD     FRZ RAIN  30  27  88 E8        30.01F FOG     WCI  22
RICE LAKE      CLOUDY    26  19  77 CALM      30.05F
$$

...NORTHEAST IOWA...


CITY           SKY/WX    TMP DP  RH WIND       PRES   REMARKS
WATERLOO       CLOUDY    33  32  96 E6        29.91F FOG     WCI  28
DUBUQUE        CLOUDY    33  33 100 E9        29.92F FOG     WCI  25
DECORAH        CLOUDY    32  32 100 E7        29.93F FOG     WCI  26
MASON CITY     FRZ RAIN  32  31  96 NE10      29.94S FOG     WCI  24
CHARLES CITY   CLOUDY    34  34 100 NE9       29.93F FOG     WCI  26
OELWEIN        CLOUDY    34  34 100 E9        29.91F FOG     WCI  26
$$

...ELSEWHERE IN IOWA...


CITY           SKY/WX    TMP DP  RH WIND       PRES   REMARKS
DES MOINES     FOG       34  33  96 N5        29.89S VSB 1/2 WCI  30
IOWA CITY      FOG       37  36  96 E5        29.90F VSB 1   WCI  33
FORT DODGE     CLOUDY    32  30  93 CALM      29.93S
MARSHALLTOWN   CLOUDY    33  33 100 NE6       29.89S FOG     WCI  28
CEDAR RAPIDS   FOG       34  34 100 E7        29.88F VSB 1/4 WCI  28
$$

...NORTHERN ILLINOIS...


CITY           SKY/WX    TMP DP  RH WIND       PRES   REMARKS
CHICAGO-OHARE  LGT RAIN  36  35  96 E8        29.99F VSB 1/2 WCI  30
CHICAGO-MIDWAY RAIN      36  34  92 E9        29.99F VSB 1   WCI  29
MOLINE         CLOUDY    37  35  92 E7        29.90F FOG     WCI  32
ROCKFORD       RAIN      36  35  96 VRB3      30.00R FOG
PEORIA         LGT RAIN  42  42 100 E8        29.92F VSB 1/8
$$

NOTE: "FAIR" INDICATES FEW OR NO CLOUDS BELOW 12,000 FEET WITH NO
SIGNIFICANT WEATHER AND/OR OBSTRUCTIONS TO VISIBILITY. WIND
SPEEDS ARE IN MILES-PER-HOUR.




USA.gov is the U.S. government's official web portal to all federal, state and local government web resources and services.